Location: *
(51.0333°S, 178.4667°E)
Time: 07:33:21
(UTC+00:00)

STARLINK-66 - Pass Details

Date: 15 November 2019
Orbit: 529 x 530 km, 53.0° (Epoch: 16 December)

Event Time Altitude Azimuth Distance (km) Brightness Sun altitude
Rises 08:51:58 0° 274° (W) 2,685 7.7 -10.3°
Reaches altitude 10° 08:54:12 10° 271° (W) 1,797 6.9 -10.5°
Maximum altitude 08:58:16 68° 187° (S) 584 3.9 -10.9°
Drops below altitude 10° 09:02:21 10° 103° (ESE) 1,803 6.0 -11.3°
Enters shadow 09:04:52 -1° 100° (E) 2,807 6.9 -11.6°
